Regional Weather Roundup
Issued by NWS Goodland, KS

Home | Current Version | Previous Version | Graphics & Text | Print | Product List | Glossary On
Versions: 1 2 3 4 5 6 7 8 9 10 11 12 13 14 15 16 17 18 19 20 21 22 23 24 25 26 27 28 29 30 31 32 33 34 35 36 37 38 39 40 41 42 43 44 45 46 47 48 49 50
000
ASUS43 KGLD 210608
RWRGLD

GOODLAND FORECAST AREA HOURLY WEATHER ROUNDUP
NATIONAL WEATHER SERVICE GOODLAND KS
1100 PM MST MON FEB 20 2017

...OFFICIAL OBSERVATIONS...

CITY           SKY/WX    TMP DP  RH WIND       PRES   REMARKS
GOODLAND KS    CLOUDY    42  14  32 SW9       30.01S
HILL CITY KS   CLEAR     36  27  69 W6        30.00F
IMPERIAL NEB   CLOUDY    38  17  42 S3        29.99R
MCCOOK NEB     CLOUDY    35  22  58 W3        29.98F
AKRON CO       CLOUDY    44  15  31 S12       30.01R
BURLINGTON CO  CLOUDY    40  13  33 S14       30.03S
LIMON CO       CLOUDY    40  13  33 S9        30.05F
$$

...UNOFFICIAL OBSERVATIONS...

CITY           SKY/WX    TMP DP  RH WIND       PRES   REMARKS
LENORA KS        N/A     46  32  58 SW5         N/A
NORTON KS      CLEAR     36  21  55 SW8       29.98F
SHARON SPRINGS   N/A     32  15  49 SW8         N/A
TRENTON NEB      N/A     41  32  70 CALM        N/A
KIT CARSON CO    N/A     28  13  52 CALM        N/A
YUMA CO        FAIR      32  18  55 SW10      30.00S
$$



USA.gov is the U.S. government's official web portal to all federal, state and local government web resources and services.